Regional Weather Roundup
Issued by NWS Bismarck, ND

Home | Current Version | Previous Version | Text Only | Print | Product List | Glossary On
Versions: 1 2 3 4 5 6 7 8 9 10 11 12 13 14 15 16 17 18 19 20 21 22 23 24 25 26 27 28 29 30 31 32 33 34 35 36 37 38 39 40 41 42 43 44 45 46 47 48 49 50
000
ASUS43 KBIS 230210
RWRBIS

NWR BROADCAST TEXT
NATIONAL WEATHER SERVICE BISMARCK ND
900 PM CDT FRI AUG 22 2014

NOTE: "FAIR" INDICATES FEW OR NO CLOUDS BELOW 12,000 FEET WITH NO
SIGNIFICANT WEATHER AND/OR OBSTRUCTIONS TO VISIBILITY.


CITY           SKY/WX    TMP DP  RH WIND       PRES   REMARKS
WILLISTON      CLOUDY    65  54  67 E14       30.12F
MINOT          CLOUDY    63  59  87 N8        30.12R
MINOT AFB      CLOUDY    64  60  87 NE9       30.12R
BISMARCK       CLOUDY    68  65  90 NE10      30.06R
DICKINSON      CLOUDY    65  61  87 NE13      30.06F
GARRISON         N/A     64  61  90 NE6       30.10S
HETTINGER ARPT CLOUDY    69  60  73 E9        30.05S
JAMESTOWN      PTCLDY    66  63  90 NE6       30.06R
BEACH            N/A     63  63 100 E12       30.09R
CARRINGTON     CLOUDY    66  66 100 NE9       30.10S
CROSBY         CLOUDY    63  57  82 NE9       30.16R
HARVEY         CLOUDY    64  63  94 NE8       30.10S
HAZEN          CLOUDY    64  59  82 NE10G16   30.10R
LINTON         MOCLDY    72  68  88 NE9       30.03S
MANDAN         CLOUDY    66  64  94 NE9       30.08S
OAKES            N/A     68  68 100 NE8       30.04R
RUGBY          CLOUDY    63  59  88 NE10      30.12R
STANLEY        CLOUDY    63  57  82 NE8       30.14R
TIOGA          CLOUDY    61  61 100 E8        30.17R
WATFORD CITY   CLOUDY    63  57  82 E14       30.09F
$$

CITY           SKY/WX    TMP DP  RH WIND       PRES   REMARKS
GRAND FORKS    CLOUDY    68  62  81 N9        30.06R
GRAND FORKS AF CLOUDY    67  64  89 N13       30.08R
DEVILS LAKE    CLOUDY    66  55  68 NE12      30.09S
FARGO          CLOUDY    69  65  86 N7        30.04R
CANDO          CLOUDY    63  57  82 NE10      30.13S
CAVALIER       CLOUDY    64  59  82 N12G18    30.11R
GRAFTON        CLOUDY    66  61  82 N12       30.09R
GWINNER        CLEAR     70  70 100 NE8       30.05R
LANGDON        CLOUDY    63  57  82 N12       30.13R
ROLLA          CLOUDY    59  59 100 NE10      30.16S
WALHALLA         N/A     63  63 100 N13       30.12R
$$

CITY           SKY/WX    TMP DP  RH WIND       PRES   REMARKS
ABERDEEN       CLOUDY    71  68  90 NE8       30.00S
MOBRIDGE       MOCLDY    68  64  87 NE8       29.98S
BUFFALO          N/A     68  60  75 E10       29.99R
RAPID CITY     MOCLDY    71  63  75 W5        30.01R
GLASGOW        CLOUDY    63  54  72 NE16G25   30.09S
SIDNEY         CLOUDY    64  57  77 NE12      30.11R
WOLF POINT     CLOUDY    66  54  65 E14       30.10R
GLENDIVE       CLOUDY    64  59  82 NE18      30.09R
MILES CITY     LGT RAIN  64  61  90 NE14      30.01S
BAKER          CLOUDY    65  61  87 E16       30.04S
$$

CITY           SKY/WX    TMP DP  RH WIND       PRES   REMARKS
BILLINGS       CLOUDY    61  57  87 N8        30.02F
GREAT FALLS    CLOUDY    56  52  86 N13       30.14R
REGINA         MOCLDY    61  52  72 E10       30.20R
$$



USA.gov is the U.S. government's official web portal to all federal, state and local government web resources and services.